{"data":{"norad_id":57780,"intl_designator":"2023-134K","name":"STARLINK-30380","alt_names":[],"object_type":"PAYLOAD","status":"ACTIVE","operator":null,"country":"US","launch_date":"2023-09-04","launch_site_code":"AFETR","launch_vehicle":null,"mission":null,"orbit_class":"UNKNOWN","rcs_meters":null,"size_class":null,"mass_kg":null,"dimensions":null,"purposes":["comms"],"wikipedia_slug":null,"has_3d_model":false,"image_url":null,"decayed_at":null,"tle_current":{"epoch":"2026-09-20T04:31:04.882080Z","epoch_age_seconds":158226,"freshness":"FRESH","line1":"1 57780U 23134K   26263.18825095  .00000166  00000+0  15523-4 0  9999","line2":"2 57780  42.9866 175.9873 0000298 118.1540 241.9342 15.27582124169258","mean_motion":15.27582124,"eccentricity":2.98e-5,"inclination_deg":42.9866,"raan_deg":175.9873,"arg_perigee_deg":118.154,"mean_anomaly_deg":241.9342,"bstar":1.5523e-5,"rev_number":16925,"period_min":94.26661764209,"perigee_km":482.83827287078,"apogee_km":483.24719918305,"semimajor_km":6861.1797360269,"source":"CELESTRAK","updated_at":"2026-09-21T09:00:33.703957Z"}}}